MST,Max TemperatureF,Mean TemperatureF,Min TemperatureF,Max Dew PointF,MeanDew PointF,Min DewpointF,Max Humidity, Mean Humidity, Min Humidity, Max Sea Level PressureIn, Mean Sea Level PressureIn, Min Sea Level PressureIn, Max VisibilityMiles, Mean VisibilityMiles, Min VisibilityMiles, Max Wind SpeedMPH, Mean Wind SpeedMPH, Max Gust SpeedMPH,PrecipitationIn, CloudCover, Events, WindDirDegrees
2012-11-1,59,48,37,30,26,23,57,42,31,29.94,29.85,29.78,10,10,10,15,4,,0.00,1,,315
2012-11-2,59,46,32,32,27,21,78,53,26,30.19,30.06,29.90,10,10,10,15,6,21,0.00,1,,313
2012-11-3,59,40,23,25,21,15,78,50,25,30.26,30.18,30.11,10,10,10,7,2,,0.00,0,,136
2012-11-4,60,46,35,31,23,18,62,45,29,30.32,30.23,30.13,10,10,10,12,3,,0.00,5,,177
2012-11-5,55,44,32,32,28,24,73,60,39,30.29,30.21,30.11,10,10,10,7,1,,0.00,0,,136
2012-11-6,63,46,28,31,27,23,85,55,29,30.32,30.20,30.07,10,10,10,8,2,,0.00,0,,120
2012-11-7,71,50,28,27,23,21,75,44,15,30.04,29.88,29.72,10,10,10,10,2,,0.00,0,,186
2012-11-8,53,40,28,29,26,23,82,57,35,29.95,29.81,29.70,10,10,9,22,12,25,0.00,1,,305
2012-11-9,36,30,24,29,26,21,96,86,67,29.76,29.68,29.63,10,4,1,20,6,26,0.06,7,Snow,305
2012-11-10,24,16,7,23,16,2,93,84,68,30.17,29.80,29.65,10,3,0,23,19,30,0.02,8,Fog-Snow,308
2012-11-11,12,2,-7,7,0,-11,92,84,77,30.47,30.28,29.98,10,10,9,9,2,,0.00,1,,115
2012-11-12,23,9,-5,15,4,-9,91,79,65,30.57,30.48,30.39,10,10,10,7,2,,0.00,1,,140
2012-11-13,35,24,12,24,18,10,92,81,64,30.45,30.38,30.31,10,10,8,8,3,,0.00,1,,132
2012-11-14,33,22,12,25,19,9,92,85,70,30.42,30.30,30.22,10,9,6,6,1,,0.00,3,,276
2012-11-15,37,24,10,27,17,8,100,88,65,30.52,30.37,30.31,10,6,0,7,2,,0.00,3,Fog,127
2012-11-16,30,20,10,26,18,8,100,88,76,30.28,30.17,30.09,10,8,2,7,1,,0.00,3,,20
2012-11-17,46,32,18,31,25,15,96,76,51,30.21,30.10,29.94,10,10,6,6,3,,0.00,1,,133
2012-11-18,55,41,27,37,33,25,92,74,51,30.05,29.92,29.84,10,10,10,10,2,,0.00,3,,194
2012-11-19,55,42,28,34,31,26,92,72,40,30.17,30.11,30.05,10,10,10,13,3,,0.00,1,,165
2012-11-20,60,44,27,36,31,25,96,69,38,30.17,30.05,29.94,10,10,10,14,3,23,0.00,0,,169
2012-11-21,63,46,30,32,30,28,89,60,30,29.92,29.82,29.70,10,10,10,37,6,50,0.00,1,,274
2012-11-22,44,34,21,31,23,12,89,70,27,30.58,30.23,29.93,10,8,1,31,16,40,0.00,2,Snow,317
2012-11-23,39,28,17,22,16,12,84,65,35,30.58,30.44,30.20,10,10,10,7,2,,0.00,0,,152
2012-11-24,39,32,26,26,23,21,84,72,51,30.19,30.07,30.01,10,10,10,7,2,,0.00,4,,192
2012-11-25,37,34,32,34,30,20,100,86,56,30.24,29.98,29.89,10,7,1,20,6,25,0.13,8,Rain-Snow,314
2012-11-26,37,28,19,25,20,15,89,73,50,30.43,30.32,30.25,10,10,10,18,11,21,0.00,1,,125
2012-11-27,41,29,16,24,19,13,92,69,46,30.32,30.27,30.24,10,10,10,9,4,13,0.00,0,,132
2012-11-28,44,34,23,27,24,20,88,70,51,30.24,30.14,29.99,10,10,10,7,1,8,0.00,0,,133
2012-11-29,54,41,27,31,28,25,92,65,38,30.04,29.99,29.96,10,10,10,13,4,14,0.00,1,,125
2012-11-30,56,41,25,32,28,23,92,65,38,29.97,29.84,29.69,10,10,10,15,3,20,0.00,1,,138